Location: Koslow
(50.3020°N, 18.5663°E)
Time: 20:32:11
(UTC+00:00)

STARLINK-1337 - Visible Passes

Search period start: 29 September 2020 00:00
Search period end: 09 October 2020 00:00
Orbit: 549 x 550 km, 53.0° (Epoch: 29 September)

Date Brightness Start Highest point End Pass type
(mag) Time Alt. Az. Time Alt. Az. Time Alt. Az.
29 Sep 4.4 01:57:32 48° E 01:57:32 48° E 02:00:41 10° ENE visible
29 Sep 3.9 03:33:11 17° W 03:36:14 61° N 03:40:21 10° ENE visible
30 Sep 4.7 01:52:18 43° ENE 01:52:18 43° ENE 01:55:11 10° ENE visible
30 Sep 4.0 03:27:57 19° W 03:30:47 58° N 03:34:53 10° ENE visible
01 Oct 5.0 01:47:03 38° ENE 01:47:03 38° ENE 01:49:41 10° ENE visible
01 Oct 4.0 03:22:42 21° WNW 03:25:20 58° N 03:29:27 10° E visible
02 Oct 5.2 01:41:49 33° ENE 01:41:49 33° ENE 01:44:12 10° ENE visible
02 Oct 4.0 03:17:28 23° WNW 03:19:53 59° N 03:24:00 10° E visible
03 Oct 5.5 01:36:34 29° ENE 01:36:34 29° ENE 01:38:42 10° ENE visible
03 Oct 3.9 03:12:13 26° WNW 03:14:26 61° N 03:18:33 10° E visible
04 Oct 5.8 01:31:22 25° ENE 01:31:22 25° ENE 01:33:13 10° ENE visible
04 Oct 3.9 03:07:01 29° WNW 03:08:58 65° N 03:13:05 10° E visible
05 Oct 6.0 01:26:11 22° ENE 01:26:11 22° ENE 01:27:44 10° ENE visible
05 Oct 3.8 03:01:50 35° WNW 03:03:30 70° NNE 03:07:38 10° E visible
06 Oct 6.2 01:21:03 18° ENE 01:21:03 18° ENE 01:22:16 10° ENE visible
06 Oct 3.6 02:56:43 43° WNW 02:58:01 78° NNE 03:02:10 10° ESE visible
07 Oct 6.5 01:16:00 15° ENE 01:16:00 15° ENE 01:16:48 10° E visible
07 Oct 3.5 02:51:39 56° WNW 02:52:30 88° NNE 02:56:40 10° ESE visible
08 Oct 6.7 01:11:00 12° E 01:11:00 12° E 01:11:20 10° E visible
08 Oct 3.4 02:46:41 74° W 02:46:59 81° SSW 02:51:08 10° ESE visible
